Cherryvale, KS

5:35 PM CDT on August 30, 2015 (GMT -0500)
Tri-City | | Change Station
CLOSE
Current Station
Airport
Location: Parsons,
Elevation: 899 ft
Nearby Weather Stations

Elev 899 ft 37.33 °N, 95.50 °W | Updated 43 minutes ago

Mostly Cloudy
Mostly Cloudy
85 °F
Feels Like 91 °F
N
4
Wind Variable Wind from NNE

Today
High -- | Low -- °F
--% Chance of Precip.
Yesterday
High -- | Low -- °F
Precip. -- in
6:50 AM 7:54 PM
Full, 98% visible
Pressure 29.94 in
Visibility 10.0 miles
Clouds Scattered Clouds 4300 ft
Heat Index 91 °F
Dew Point 73 °F
Humidity 67%
Rainfall 0.00 in
Snow Depth Not available.
UV 3 out of 12
Pollen 9.30 out of 12
Air Quality Not available.
Flu Activity Not available.
METAR KPPF 302152Z AUTO 02003KT 10SM SCT043 29/23 A2997 RMK AO2 SLP139 T02940228
Pressure 29.94 in
Visibility 10.0 miles
Clouds Scattered Clouds 4300 ft
Heat Index 91 °F
Dew Point 73 °F
Humidity 67%
Rainfall 0.00 in
Snow Depth Not available.
UV 3 out of 12
Pollen 9.30 out of 12
Air Quality Not available.
Flu Activity Not available.
METAR KPPF 302152Z AUTO 02003KT 10SM SCT043 29/23 A2997 RMK AO2 SLP139 T02940228

10-Day Weather Forecast

×

Almanac

Astronomy

Aug. 30, 2015 Rise Set
Actual Time
Civil Twilight
Nautical Twilight
Astronomical Twilight
Moon
Length of Visible Light
Length of Day
Tomorrow will be .
, % of the Moon is Illuminated

Today's Extremes

State Highs State Lows

Community

WunderPhotos

Upload Photos

1,851,074 photos uploaded!

WunderBlogs® & News

Nearby

Air Quality

  Air Quality AQ Index Pollutant
Not available.

Snow Depth

Station Depth Elevation

Earthquake Activity

City Distance Mag. Time & Date
Minimum magnitude displayed is 2.5.

Coastal Water Temperatures

Place Temperature

Stations

Nearby Weather Stations

Station Location Temp. Windchill Dew Point Humidity Wind Precip. Elev Updated Type